This demonstration page uses our WeatherBlox Daily Observations layout. Learn more.

Left ArrowRight Arrow

Hourly Observations for December 13, 2017

Temp ( °F °C ) Dew Point ( °F °C ) Humidity (%) Winds ( mph kmh ) Pressure ( in mb ) Visibility ( mi km ) Precip ( " mm )
6:30 am 06:30 Cloudy 19 -7 9 -13 63 63 S 7 11 29.97 1015 10 16 N/A
6:45 am 06:45 Cloudy 19 -7 9 -13 63 63 S 9 15 29.97 1015 10 16 N/A
7:45 am 07:45 Cloudy 21 -6 7 -14 54 54 S 12 19 29.94 1014 10 16 N/A
8:45 am 08:45 Cloudy 23 -5 7 -14 50 50 S 9 15 29.88 1012 10 16 N/A
9:45 am 09:45 Cloudy 25 -4 7 -14 46 46 S 14 22 29.85 1011 10 16 N/A
10:45 am 10:45 Cloudy 28 -2 7 -14 40 40 S 16 26 29.80 1009 10 16 N/A
11:45 am 11:45 Cloudy 30 -1 5 -15 34 34 S 23 37 29.71 1006 10 16 N/A
12:45 pm 12:45 Cloudy 36 2 3 -16 25 25 S 21 33 29.59 1002 10 16 N/A
1:45 pm 13:45 Mostly Cloudy 37 3 3 -16 23 23 S 25 41 29.53 1000 10 16 N/A
2:45 pm 14:45 Cloudy 39 4 7 -14 26 26 SSW 23 37 29.53 1000 10 16 N/A
3:45 pm 15:45 Mostly Cloudy 39 4 52 11 100 100 SW 21 33 29.50 999 N/A N/A
4:54 pm 16:54 Cloudy 41 5 16 -9 36 36 SW 15 24 29.50 999 10 16 N/A
5:57 pm 17:57 Cloudy 41 5 18 -8 39 39 SW 13 20 29.50 999 10 16 N/A
6:48 pm 18:48 Cloudy 43 6 18 -8 36 36 SW 17 28 29.50 999 10 16 N/A
7:46 pm 19:46 Cloudy 45 7 27 -3 49 49 WNW 24 39 29.53 1000 10 16 N/A
7:54 pm 19:54 Cloudy with Light Rain 41 5 30 -1 66 66 WNW 20 31 29.56 1001 7 11 N/A
8:50 pm 20:50 Cloudy 39 4 27 -3 61 61 WNW 20 31 29.59 1002 7 11 N/A
8:54 pm 20:54 Cloudy with Light Rain 39 4 28 -2 65 65 WNW 24 39 29.56 1001 7 11 N/A
9:54 pm 21:54 Cloudy 39 4 25 -4 56 56 WNW 23 37 29.59 1002 10 16 N/A
9:55 pm 21:55 Cloudy 39 4 27 -3 61 61 WNW 20 31 29.59 1002 7 11 N/A

Powered by AerisWeather